DW4611 Weather Reports


Display with metric or nautical units.
time (UTC)temp
F
wind
direction
speed
MPH
gust
MPH
rain 1hr
in
rain 24hr
in
rain mn
in
humidity
%
barometer
mb
20180922200725 73 321 2.0 4.0 0.00 0.00 0.00 69 1015.0
20180922195225 73 313 2.0 5.0 0.00 0.00 0.00 70 1015.1
20180922193728 72 332 2.0 4.0 0.00 0.00 0.00 71 1015.0
20180922192225 72 306 0.0 1.0 0.00 0.00 0.00 71 1015.0
20180922190723 72 91 0.0 0.0 0.00 0.00 0.00 71 1014.9
20180922185220 73 91 0.0 0.0 0.00 0.00 0.00 72 1014.8
20180922183720 73 91 0.0 1.0 0.00 0.00 0.00 70 1014.6
20180922182219 74 96 0.0 0.0 0.00 0.00 0.00 70 1014.5
20180922180717 75 96 0.0 0.0 0.00 0.00 0.00 70 1014.4
20180922175218 75 96 0.0 0.0 0.00 0.00 0.00 68 1014.4
20180922173717 76 96 0.0 0.0 0.00 0.00 0.00 65 1014.2
20180922172216 77 96 0.0 0.0 0.00 0.00 0.00 62 1014.0
20180922170715 78 96 0.0 6.0 0.00 0.00 0.00 61 1013.7
20180922165213 78 96 1.0 6.0 0.00 0.00 0.00 58 1013.6
20180922163713 78 74 4.0 8.0 0.00 0.00 0.00 58 1013.5
20180922162216 79 117 1.0 7.0 0.00 0.00 0.00 59 1013.4
20180922160711 79 143 1.0 6.0 0.00 0.00 0.00 59 1013.2
20180922155211 79 161 3.0 7.0 0.00 0.00 0.00 58 1013.1
20180922153710 80 159 3.0 7.0 0.00 0.00 0.00 57 1013.0
20180922152211 82 169 3.0 9.0 0.00 0.00 0.00 55 1013.1
20180922150710 82 73 5.0 10.0 0.00 0.00 0.00 51 1012.9
20180922145209 82 158 4.0 9.0 0.00 0.00 0.00 52 1013.0
20180922143708 82 145 4.0 11.0 0.00 0.00 0.00 50 1012.9
20180922142209 82 163 5.0 12.0 0.00 0.00 0.00 51 1012.9
20180922140705 82 116 5.0 11.0 0.00 0.00 0.00 51 1013.0
20180922135207 82 128 7.0 12.0 0.00 0.00 0.00 52 1013.1
20180922133705 82 84 3.0 10.0 0.00 0.00 0.00 52 1013.2
20180922132205 82 151 7.0 11.0 0.00 0.00 0.00 52 1013.2
20180922130703 82 206 4.0 12.0 0.00 0.00 0.00 54 1013.1
20180922125201 82 169 7.0 14.0 0.00 0.00 0.00 54 1013.2
20180922123657 82 157 6.0 12.0 0.00 0.00 0.00 54 1013.3
20180922122157 82 171 6.0 15.0 0.00 0.00 0.00 55 1013.5
20180922120657 82 156 4.0 12.0 0.00 0.00 0.00 54 1013.4
20180922115157 82 136 6.0 14.0 0.00 0.00 0.00 55 1013.6
20180922113653 81 142 6.0 14.0 0.00 0.00 0.00 54 1013.6
20180922112151 81 172 5.0 10.0 0.00 0.00 0.00 54 1013.7
20180922110651 81 155 4.0 11.0 0.00 0.00 0.00 54 1013.6
20180922105152 81 163 3.0 10.0 0.00 0.00 0.00 55 1013.7
20180922103646 80 134 3.0 11.0 0.00 0.00 0.00 57 1013.7
20180922102146 80 169 4.0 9.0 0.00 0.00 0.00 58 1013.8
20180922100645 79 163 5.0 10.0 0.00 0.00 0.00 55 1013.9
20180922095140 79 165 3.0 8.0 0.00 0.00 0.00 55 1013.9
20180922093639 79 198 3.0 8.0 0.00 0.00 0.00 55 1014.0
20180922092137 78 154 4.0 7.0 0.00 0.00 0.00 59 1014.1
20180922090633 77 161 0.0 1.0 0.00 0.00 0.00 61 1014.2
20180922085129 76 161 0.0 1.0 0.00 0.00 0.00 58 1014.1
20180922083629 75 161 3.0 7.0 0.00 0.00 0.00 59 1014.1
20180922082124 74 169 0.0 7.0 0.00 0.00 0.00 61 1014.0
20180922080618 73 125 4.0 12.0 0.00 0.00 0.00 64 1013.7
20180922075114 72 140 3.0 5.0 0.00 0.00 0.00 55 1013.5
20180922073613 71 280 0.0 6.0 0.00 0.00 0.00 58 1013.2
20180922072107 68 307 1.0 7.0 0.00 0.00 0.00 61 1013.1
20180922070604 66 300 0.0 0.0 0.00 0.00 0.00 69 1013.2
20180922065104 65 288 0.0 3.0 0.00 0.00 0.00 68 1013.1
20180922063604 64 327 0.0 0.0 0.00 0.00 0.00 71 1013.1
20180922062101 63 294 2.0 5.0 0.00 0.00 0.00 72 1013.0
20180922060603 62 24 1.0 4.0 0.00 0.00 0.00 77 1012.9
20180922055057 61 24 0.0 0.0 0.00 0.00 0.00 81 1012.8
20180922053556 61 24 0.0 0.0 0.00 0.00 0.00 82 1012.6
20180922052057 61 24 0.0 1.0 0.00 0.00 0.00 82 1012.5
20180922050554 61 24 0.0 0.0 0.00 0.00 0.00 80 1012.1
20180922045053 61 24 0.0 1.0 0.00 0.00 0.00 79 1011.9
20180922043549 62 24 0.0 0.0 0.00 0.00 0.00 80 1011.8
20180922042050 62 24 0.0 4.0 0.00 0.00 0.00 79 1011.7
20180922040550 63 24 0.0 0.0 0.00 0.00 0.00 78 1011.8
20180922035046 63 24 0.0 0.0 0.00 0.00 0.00 77 1011.8
20180922033544 64 24 0.0 0.0 0.00 0.00 0.00 75 1011.7
20180922032044 64 24 0.0 1.0 0.00 0.00 0.00 74 1011.7
20180922030539 65 24 0.0 0.0 0.00 0.00 0.00 73 1011.8
20180922025041 65 24 0.0 0.0 0.00 0.00 0.00 73 1011.8
20180922023539 66 24 0.0 0.0 0.00 0.00 0.00 73 1011.8
20180922022036 66 24 0.0 0.0 0.00 0.00 0.00 73 1011.8
20180922020536 66 24 0.0 1.0 0.00 0.00 0.00 74 1011.8
20180922015034 65 24 0.0 4.0 0.00 0.00 0.00 75 1011.8
20180922013535 65 360 0.0 0.0 0.00 0.00 0.00 77 1011.9
20180922012033 65 360 0.0 0.0 0.00 0.00 0.00 77 1012.0
20180922010530 66 360 0.0 3.0 0.00 0.00 0.00 76 1011.9
20180922005027 66 355 0.0 1.0 0.00 0.00 0.00 78 1012.1
20180922003526 66 355 0.0 0.0 0.00 0.00 0.00 76 1012.2
20180922002027 66 355 0.0 0.0 0.00 0.00 0.00 77 1012.2
20180922000523 67 355 0.0 0.0 0.00 0.00 0.00 76 1012.1
20180921235022 67 355 0.0 1.0 0.00 0.00 0.00 77 1012.0
20180921233520 68 355 0.0 0.0 0.00 0.00 0.00 77 1012.0
20180921232017 68 355 0.0 0.0 0.00 0.00 0.00 76 1012.2
20180921230514 69 355 0.0 0.0 0.00 0.00 0.00 76 1012.2
20180921225013 69 355 0.0 0.0 0.00 0.00 0.00 75 1012.4
20180921223511 70 355 0.0 0.0 0.00 0.00 0.00 74 1012.4
20180921222007 71 355 1.0 3.0 0.00 0.00 0.00 72 1012.3
20180921220504 71 336 0.0 1.0 0.00 0.00 0.00 71 1012.4
20180921215004 71 336 0.0 5.0 0.00 0.00 0.00 71 1012.5
20180921213504 71 340 2.0 5.0 0.00 0.00 0.00 73 1012.6
20180921212003 71 350 2.0 4.0 0.00 0.00 0.00 74 1012.4
20180921210503 71 350 0.0 1.0 0.00 0.00 0.00 75 1012.3
20180921205000 72 350 0.0 0.0 0.00 0.00 0.00 75 1012.4
20180921203501 72 350 0.0 1.0 0.00 0.00 0.00 75 1012.3